This is the latest recevied weather packets stored in our database for station/object KC3BHK-2. If no packets are shown the sender has not sent any weather packets the latest 10 day(s).
| Time | Temp. | Humidity | Pressure | Rain* | Wind** | Luminosity | Snow |
|---|---|---|---|---|---|---|---|
| 1777985338 | 16.67° C | - | - | 0 mm | 1.79 m/s, 136° | - | - |
| 1777985033 | 16.67° C | - | - | 0 mm | 2.24 m/s, 121° | - | - |
| 1777984727 | 16.11° C | - | - | 0 mm | 2.68 m/s, 191° | - | - |
| 1777984423 | 16.11° C | - | - | 0 mm | 1.34 m/s, 165° | - | - |
| 1777984118 | 16.11° C | - | - | 0 mm | 2.24 m/s, 134° | - | - |
| 1777983811 | 16.11° C | - | - | 0 mm | 1.79 m/s, 138° | - | - |
| 1777983506 | 15.56° C | - | - | 0 mm | 1.34 m/s, 207° | - | - |
| 1777983202 | 15.56° C | - | - | 0 mm | 1.79 m/s, 139° | - | - |
| 1777982897 | 15.56° C | - | - | 0 mm | 1.34 m/s, 201° | - | - |
| 1777982592 | 15° C | - | - | 0 mm | 1.34 m/s, 160° | - | - |
| 1777982288 | 14.44° C | - | - | 0 mm | 1.34 m/s, 195° | - | - |
| 1777981980 | 15° C | - | - | 0 mm | 1.34 m/s, 156° | - | - |
| 1777981371 | 14.44° C | - | - | 0 mm | 0.89 m/s, 176° | - | - |
| 1777981066 | 13.33° C | - | - | 0 mm | 1.34 m/s, 173° | - | - |
| 1777980760 | 13.33° C | - | - | 0 mm | 1.79 m/s, 201° | - | - |
| 1777980455 | 13.33° C | - | - | 0 mm | 0.45 m/s, 128° | - | - |
| 1777980148 | 13.33° C | - | - | 0 mm | 0 m/s | - | - |
| 1777979843 | 12.22° C | - | - | 0 mm | 0 m/s | - | - |
| 1777979538 | 11.11° C | - | - | 0 mm | 0 m/s | - | - |
| 1777979233 | 12.22° C | - | - | 0 mm | 0 m/s | - | - |
| 1777978929 | 11.67° C | - | - | 0 mm | 0 m/s | - | - |
| 1777978623 | 11.11° C | - | - | 0 mm | 0 m/s | - | - |
| 1777978315 | 11.67° C | - | - | 0 mm | 0 m/s | - | - |
| 1777978011 | 12.22° C | - | - | 0 mm | 0 m/s | - | - |
| 1777977706 | 11.11° C | - | - | 0 mm | 0 m/s | - | - |
* Rain latest hour (hover to see other rain measurements)
** Current wind speed in m/s (hover to see current wind gust speed)